JNA405 RKTU-RKPC

Flight info

Callsign JNA405
Flight time 0h 49m
Altitude 20000
Route CHO8 BULTI Y711 DOTOL DOTOL2P
Aircraft B738/M-SDE2E3FGHIRWXY/LB1

Departure

Time 2026-04-28 17:10
Airport Cheongju International Airport/Cheongju Air Base (K-59/G-513) (RKTU)

Arrival

Time 2026-04-28 17:59
Airport Jeju International Airport (RKPC)
Time Latitude Longitude Altitude Speed Heading
2026-04-28 16:48 36.72045 127.49591 200 ft 0 kts 322°
2026-04-28 16:57 36.72043 127.49593 198 ft 3 kts 322°
2026-04-28 16:57 36.72029 127.49608 204 ft 3 kts 322°
2026-04-28 16:58 36.72014 127.49622 204 ft 4 kts 326°
2026-04-28 16:58 36.71994 127.49632 202 ft 4 kts
2026-04-28 16:58 36.71975 127.49622 200 ft 4 kts 47°
2026-04-28 16:58 36.71970 127.49615 201 ft 1 kts 52°
2026-04-28 17:01 36.71973 127.49619 201 ft 2 kts 52°
2026-04-28 17:02 36.71995 127.49654 201 ft 8 kts 52°
2026-04-28 17:02 36.72032 127.49714 188 ft 9 kts 52°
2026-04-28 17:02 36.72070 127.49773 192 ft 9 kts 52°
2026-04-28 17:02 36.72106 127.49832 188 ft 8 kts 52°
2026-04-28 17:03 36.72176 127.49942 188 ft 8 kts 52°
2026-04-28 17:03 36.72209 127.49995 188 ft 8 kts 52°
2026-04-28 17:03 36.72241 127.50046 195 ft 7 kts 52°
2026-04-28 17:04 36.72303 127.50143 199 ft 7 kts 51°
2026-04-28 17:04 36.72324 127.50194 188 ft 7 kts 90°
2026-04-28 17:05 36.72264 127.50280 192 ft 7 kts 139°
2026-04-28 17:05 36.72231 127.50318 188 ft 7 kts 128°
2026-04-28 17:05 36.72237 127.50375 183 ft 8 kts 54°
2026-04-28 17:06 36.72322 127.50505 179 ft 11 kts 51°
2026-04-28 17:06 36.72375 127.50587 179 ft 13 kts 52°
2026-04-28 17:06 36.72500 127.50784 180 ft 14 kts 52°
2026-04-28 17:07 36.72554 127.50880 181 ft 9 kts 67°
2026-04-28 17:07 36.72555 127.50958 182 ft 9 kts 97°
2026-04-28 17:07 36.72549 127.51035 182 ft 9 kts 99°
2026-04-28 17:07 36.72511 127.51090 182 ft 9 kts 157°
2026-04-28 17:08 36.72453 127.51103 181 ft 8 kts 170°
2026-04-28 17:08 36.72390 127.51115 178 ft 10 kts 180°
2026-04-28 17:08 36.72321 127.51105 174 ft 7 kts 166°
2026-04-28 17:08 36.72293 127.51131 174 ft 2 kts 140°
2026-04-28 17:09 36.72282 127.51140 174 ft 2 kts 151°
2026-04-28 17:09 36.72261 127.51135 174 ft 5 kts 210°
2026-04-28 17:09 36.72179 127.51016 173 ft 47 kts 232°
2026-04-28 17:09 36.71822 127.50447 175 ft 117 kts 232°
2026-04-28 17:10 36.71216 127.49434 221 ft 169 kts 232°
2026-04-28 17:10 36.70505 127.48289 998 ft 165 kts 233°
2026-04-28 17:10 36.69784 127.47102 1739 ft 172 kts 232°
2026-04-28 17:10 36.69043 127.45881 2301 ft 192 kts 233°
2026-04-28 17:11 36.68190 127.44449 2580 ft 218 kts 233°
2026-04-28 17:11 36.67251 127.42842 2876 ft 239 kts 236°
2026-04-28 17:11 36.66593 127.40832 3144 ft 262 kts 263°
2026-04-28 17:11 36.66892 127.38581 3881 ft 270 kts 295°
2026-04-28 17:12 36.67839 127.36557 4834 ft 271 kts 301°
2026-04-28 17:12 36.68833 127.34540 5671 ft 276 kts 301°
2026-04-28 17:12 36.69832 127.32478 6426 ft 279 kts 300°
2026-04-28 17:12 36.70843 127.30394 6657 ft 280 kts 300°
2026-04-28 17:13 36.71753 127.28267 6857 ft 277 kts 288°
2026-04-28 17:13 36.72021 127.25889 6829 ft 278 kts 270°
2026-04-28 17:13 36.71995 127.23492 6814 ft 277 kts 269°
2026-04-28 17:13 36.71977 127.21092 6773 ft 277 kts 269°
2026-04-28 17:14 36.71970 127.18696 6740 ft 277 kts 270°
2026-04-28 17:14 36.71983 127.16303 6749 ft 275 kts 270°
2026-04-28 17:14 36.72005 127.13921 6766 ft 274 kts 270°
2026-04-28 17:14 36.72040 127.11546 6756 ft 274 kts 270°
2026-04-28 17:15 36.72070 127.09168 6734 ft 274 kts 270°
2026-04-28 17:15 36.72093 127.06794 6759 ft 274 kts 270°
2026-04-28 17:15 36.72107 127.04422 6771 ft 274 kts 270°
2026-04-28 17:15 36.72133 127.02053 6827 ft 273 kts 270°
2026-04-28 17:16 36.72161 126.99686 6869 ft 273 kts 270°
2026-04-28 17:16 36.72186 126.97341 6869 ft 275 kts 270°
2026-04-28 17:16 36.72209 126.94920 6876 ft 277 kts 270°
2026-04-28 17:16 36.72228 126.92545 6877 ft 278 kts 270°
2026-04-28 17:17 36.72246 126.90136 6875 ft 279 kts 270°
2026-04-28 17:17 36.72260 126.87710 6878 ft 279 kts 268°
2026-04-28 17:17 36.71814 126.85381 6868 ft 278 kts 241°
2026-04-28 17:17 36.70557 126.83591 6891 ft 278 kts 213°
2026-04-28 17:18 36.68760 126.82695 7330 ft 283 kts 189°
2026-04-28 17:18 36.66806 126.82605 8267 ft 281 kts 179°
2026-04-28 17:18 36.64848 126.82700 9104 ft 283 kts 178°
2026-04-28 17:18 36.62864 126.82807 9875 ft 287 kts 178°
2026-04-28 17:19 36.60826 126.82902 10377 ft 303 kts 178°
2026-04-28 17:19 36.58631 126.82989 10558 ft 328 kts 179°
2026-04-28 17:19 36.56269 126.83076 10744 ft 350 kts 179°
2026-04-28 17:19 36.53776 126.83170 11134 ft 364 kts 178°
2026-04-28 17:20 36.51225 126.83275 11773 ft 369 kts 178°
2026-04-28 17:20 36.49519 126.83347 12250 ft 371 kts 178°
2026-04-28 17:20 36.46051 126.83493 13177 ft 375 kts 178°
2026-04-28 17:20 36.43431 126.83601 13824 ft 379 kts 178°
2026-04-28 17:21 36.40780 126.83710 14471 ft 383 kts 178°
2026-04-28 17:21 36.38106 126.83786 15105 ft 386 kts 181°
2026-04-28 17:21 36.35412 126.83577 15730 ft 390 kts 185°
2026-04-28 17:22 36.29971 126.82901 16909 ft 396 kts 186°
2026-04-28 17:22 36.27214 126.82560 17471 ft 400 kts 186°
2026-04-28 17:22 36.24435 126.82234 18006 ft 403 kts 185°
2026-04-28 17:23 36.18800 126.81606 19093 ft 409 kts 185°
2026-04-28 17:23 36.15965 126.81295 19722 ft 409 kts 185°
2026-04-28 17:23 36.13112 126.80982 19990 ft 413 kts 185°
2026-04-28 17:23 36.10229 126.80668 19997 ft 418 kts 185°
2026-04-28 17:24 36.07332 126.80352 20002 ft 418 kts 185°
2026-04-28 17:24 36.04443 126.80038 20003 ft 417 kts 185°
2026-04-28 17:24 36.01555 126.79724 20000 ft 416 kts 185°
2026-04-28 17:24 35.98674 126.79410 20000 ft 416 kts 185°
2026-04-28 17:25 35.95789 126.79097 20004 ft 416 kts 185°
2026-04-28 17:25 35.90017 126.78470 20002 ft 416 kts 185°
2026-04-28 17:25 35.87128 126.78157 20002 ft 416 kts 185°
2026-04-28 17:26 35.84245 126.77846 20002 ft 417 kts 185°
2026-04-28 17:26 35.81352 126.77535 20001 ft 417 kts 185°
2026-04-28 17:26 35.78466 126.77224 20002 ft 417 kts 185°
2026-04-28 17:26 35.75572 126.76913 20002 ft 417 kts 185°
2026-04-28 17:27 35.72683 126.76602 20002 ft 417 kts 185°
2026-04-28 17:27 35.69794 126.76291 20001 ft 417 kts 185°
2026-04-28 17:27 35.66904 126.75981 20001 ft 417 kts 185°
2026-04-28 17:27 35.64013 126.75670 20001 ft 417 kts 185°
2026-04-28 17:28 35.61123 126.75360 20002 ft 417 kts 185°
2026-04-28 17:28 35.55384 126.74745 20001 ft 417 kts 185°
2026-04-28 17:28 35.52493 126.74435 20001 ft 417 kts 185°
2026-04-28 17:29 35.49603 126.74126 20002 ft 417 kts 185°
2026-04-28 17:29 35.46717 126.73819 20002 ft 417 kts 185°
2026-04-28 17:29 35.43827 126.73512 20004 ft 417 kts 185°
2026-04-28 17:30 35.38050 126.72900 19999 ft 417 kts 185°
2026-04-28 17:30 35.32272 126.72289 20001 ft 417 kts 185°
2026-04-28 17:30 35.29386 126.71983 20002 ft 417 kts 185°
2026-04-28 17:31 35.26497 126.71678 19999 ft 416 kts 185°
2026-04-28 17:31 35.20727 126.71068 20002 ft 416 kts 185°
2026-04-28 17:32 35.14951 126.70459 20000 ft 416 kts 185°
2026-04-28 17:32 35.12067 126.70155 20002 ft 416 kts 185°
2026-04-28 17:32 35.09177 126.69849 20002 ft 416 kts 185°
2026-04-28 17:32 35.06292 126.69544 20001 ft 416 kts 185°
2026-04-28 17:33 35.03408 126.69239 20004 ft 416 kts 185°
2026-04-28 17:33 35.00521 126.68933 20002 ft 416 kts 185°
2026-04-28 17:33 34.97632 126.68628 20000 ft 417 kts 185°
2026-04-28 17:33 34.96660 126.68525 20000 ft 417 kts 185°
2026-04-28 17:34 34.91858 126.68018 20002 ft 416 kts 185°
2026-04-28 17:34 34.88972 126.67714 20001 ft 416 kts 185°
2026-04-28 17:34 34.86086 126.67410 20001 ft 416 kts 185°
2026-04-28 17:34 34.83199 126.67106 20001 ft 416 kts 185°
2026-04-28 17:35 34.80315 126.66802 19999 ft 416 kts 185°
2026-04-28 17:35 34.77427 126.66499 20002 ft 416 kts 185°
2026-04-28 17:35 34.74544 126.66196 20003 ft 416 kts 185°
2026-04-28 17:35 34.71673 126.65894 19989 ft 408 kts 185°
2026-04-28 17:36 34.68898 126.65603 19982 ft 391 kts 185°
2026-04-28 17:36 34.66230 126.65324 19987 ft 382 kts 185°
2026-04-28 17:36 34.63591 126.65047 19999 ft 381 kts 185°
2026-04-28 17:36 34.61843 126.64864 19990 ft 382 kts 185°
2026-04-28 17:37 34.58295 126.64492 19558 ft 380 kts 185°
2026-04-28 17:37 34.56557 126.64310 19262 ft 379 kts 185°
2026-04-28 17:37 34.53066 126.63945 18696 ft 374 kts 185°
2026-04-28 17:37 34.50483 126.63675 18261 ft 371 kts 185°
2026-04-28 17:38 34.48785 126.63498 17970 ft 369 kts 185°
2026-04-28 17:38 34.46235 126.63232 17538 ft 367 kts 185°
2026-04-28 17:38 34.42881 126.62882 16949 ft 363 kts 185°
2026-04-28 17:38 34.41188 126.62704 16672 ft 362 kts 185°
2026-04-28 17:39 34.38686 126.62436 16230 ft 359 kts 185°
2026-04-28 17:39 34.36207 126.62167 15803 ft 357 kts 185°
2026-04-28 17:39 34.31292 126.61635 14951 ft 352 kts 185°
2026-04-28 17:40 34.28859 126.61373 14529 ft 350 kts 185°
2026-04-28 17:40 34.26442 126.61113 14108 ft 348 kts 185°
2026-04-28 17:40 34.24038 126.60856 13651 ft 346 kts 185°
2026-04-28 17:40 34.21629 126.60606 13138 ft 347 kts 185°
2026-04-28 17:41 34.19230 126.60359 12708 ft 345 kts 185°
2026-04-28 17:41 34.16842 126.60113 12281 ft 343 kts 185°
2026-04-28 17:41 34.14472 126.59869 11860 ft 341 kts 185°
2026-04-28 17:41 34.12118 126.59626 11443 ft 339 kts 185°
2026-04-28 17:42 34.09780 126.59385 11032 ft 336 kts 185°
2026-04-28 17:42 34.07456 126.59145 10620 ft 334 kts 185°
2026-04-28 17:42 34.05168 126.58909 10448 ft 324 kts 185°
2026-04-28 17:42 34.02981 126.58683 10297 ft 315 kts 185°
2026-04-28 17:43 34.00807 126.58427 10151 ft 305 kts 191°
2026-04-28 17:43 33.98854 126.57565 10017 ft 295 kts 212°
2026-04-28 17:43 33.97256 126.56131 9916 ft 286 kts 219°
2026-04-28 17:43 33.95747 126.54618 9743 ft 280 kts 220°
2026-04-28 17:44 33.94250 126.53128 9450 ft 278 kts 219°
2026-04-28 17:44 33.92754 126.51661 9171 ft 277 kts 219°
2026-04-28 17:44 33.91261 126.50207 8914 ft 274 kts 219°
2026-04-28 17:44 33.89783 126.48773 8862 ft 273 kts 219°
2026-04-28 17:45 33.88323 126.47358 8823 ft 265 kts 219°
2026-04-28 17:45 33.86922 126.46002 8816 ft 252 kts 219°
2026-04-28 17:45 33.85590 126.44712 8821 ft 240 kts 219°
2026-04-28 17:45 33.84314 126.43478 8822 ft 232 kts 219°
2026-04-28 17:46 33.83056 126.42261 8835 ft 233 kts 219°
2026-04-28 17:46 33.81773 126.41022 8852 ft 239 kts 219°
2026-04-28 17:46 33.80462 126.39756 8851 ft 243 kts 219°
2026-04-28 17:46 33.79150 126.38489 8825 ft 241 kts 219°
2026-04-28 17:47 33.77848 126.37231 8825 ft 239 kts 219°
2026-04-28 17:47 33.76553 126.35981 8829 ft 238 kts 219°
2026-04-28 17:47 33.75264 126.34738 8830 ft 237 kts 219°
2026-04-28 17:47 33.74414 126.33918 8835 ft 237 kts 219°
2026-04-28 17:48 33.73129 126.31844 8830 ft 235 kts 256°
2026-04-28 17:48 33.73047 126.29870 8852 ft 241 kts 276°
2026-04-28 17:48 33.73290 126.27859 8849 ft 244 kts 279°
2026-04-28 17:48 33.73534 126.25850 8823 ft 242 kts 267°
2026-04-28 17:49 33.73023 126.23990 8829 ft 236 kts 232°
2026-04-28 17:49 33.71756 126.22777 8849 ft 237 kts 202°
2026-04-28 17:49 33.70137 126.22339 8848 ft 243 kts 184°
2026-04-28 17:49 33.68444 126.22275 8841 ft 243 kts 180°
2026-04-28 17:50 33.66396 126.22282 8825 ft 241 kts 180°
2026-04-28 17:50 33.64726 126.22289 8832 ft 239 kts 180°
2026-04-28 17:50 33.63076 126.22288 8826 ft 233 kts 180°
2026-04-28 17:50 33.61496 126.22282 8840 ft 221 kts 181°
2026-04-28 17:51 33.59981 126.22270 8811 ft 215 kts 181°
2026-04-28 17:51 33.58491 126.22257 8673 ft 210 kts 181°
2026-04-28 17:51 33.57082 126.22242 8568 ft 197 kts 181°
2026-04-28 17:51 33.55738 126.22226 8237 ft 192 kts 181°
2026-04-28 17:52 33.54399 126.22210 7783 ft 192 kts 181°
2026-04-28 17:52 33.53065 126.22193 7365 ft 192 kts 181°
2026-04-28 17:52 33.50856 126.22165 6681 ft 190 kts 181°
2026-04-28 17:53 33.49548 126.22148 6283 ft 187 kts 181°
2026-04-28 17:53 33.47807 126.22125 5678 ft 187 kts 181°
2026-04-28 17:53 33.46530 126.22138 5269 ft 186 kts 172°
2026-04-28 17:53 33.45404 126.22870 4775 ft 187 kts 128°
2026-04-28 17:54 33.44774 126.24196 4376 ft 185 kts 119°
2026-04-28 17:54 33.44167 126.25537 4066 ft 177 kts 119°
2026-04-28 17:54 33.43596 126.26794 3832 ft 165 kts 119°
2026-04-28 17:54 33.43229 126.27602 3590 ft 162 kts 119°
2026-04-28 17:55 33.42547 126.29106 3112 ft 151 kts 119°
2026-04-28 17:55 33.42238 126.29864 2917 ft 151 kts 109°
2026-04-28 17:55 33.42233 126.31121 2749 ft 154 kts 78°
2026-04-28 17:55 33.42648 126.32308 2721 ft 156 kts 59°
2026-04-28 17:56 33.43198 126.33444 2621 ft 159 kts 61°
2026-04-28 17:56 33.43742 126.34562 2454 ft 157 kts 59°
2026-04-28 17:56 33.44312 126.35696 2231 ft 156 kts 59°
2026-04-28 17:56 33.44868 126.36788 2013 ft 156 kts 59°
2026-04-28 17:57 33.45430 126.37890 1823 ft 154 kts 59°
2026-04-28 17:57 33.45987 126.38988 1648 ft 154 kts 59°
2026-04-28 17:57 33.46552 126.40080 1485 ft 155 kts 58°
2026-04-28 17:57 33.47116 126.41179 1290 ft 155 kts 59°
2026-04-28 17:58 33.47670 126.42281 1048 ft 154 kts 59°
2026-04-28 17:58 33.48226 126.43372 813 ft 152 kts 58°
2026-04-28 17:58 33.48776 126.44450 592 ft 152 kts 59°
2026-04-28 17:58 33.49325 126.45531 396 ft 152 kts 58°
2026-04-28 17:59 33.49875 126.46606 209 ft 149 kts 59°
2026-04-28 17:59 33.50392 126.47621 96 ft 131 kts 58°
2026-04-28 17:59 33.50801 126.48423 91 ft 91 kts 58°
2026-04-28 17:59 33.51008 126.48866 90 ft 41 kts 77°
2026-04-28 18:00 33.51028 126.49073 87 ft 12 kts 91°
2026-04-28 18:00 33.50970 126.49111 87 ft 11 kts 214°
2026-04-28 18:00 33.50919 126.49110 90 ft 8 kts 154°
2026-04-28 18:00 33.50875 126.49143 89 ft 7 kts 152°
2026-04-28 18:01 33.50834 126.49178 90 ft 7 kts 120°
2026-04-28 18:01 33.50844 126.49234 91 ft 7 kts 63°
2026-04-28 18:01 33.50869 126.49283 90 ft 7 kts 54°
2026-04-28 18:01 33.50894 126.49331 90 ft 7 kts 58°
2026-04-28 18:02 33.50918 126.49378 91 ft 7 kts 58°
2026-04-28 18:02 33.50938 126.49427 94 ft 6 kts 75°
2026-04-28 18:02 33.50934 126.49476 96 ft 5 kts 136°
2026-04-28 18:02 33.50900 126.49482 94 ft 5 kts 177°
2026-04-28 18:03 33.50867 126.49484 95 ft 5 kts 177°
2026-04-28 18:03 33.50841 126.49486 95 ft 3 kts 177°
2026-04-28 18:03 33.50825 126.49487 94 ft 1 kts 177°
2026-04-28 18:03 33.50821 126.49487 96 ft 0 kts 177°
2026-04-28 18:04 33.50820 126.49487 96 ft 0 kts 177°